Weather History for Big Delta, AK

Change the Weather History Date:

Sunday, April 14, 2013

  Actual Average Record
Temperature  
Mean Temperature 13 °F -  
Max Temperature 28 °F 40 °F 52 °F (1998)
Min Temperature -2 °F 21 °F -2 °F (2013)
Degree Days  
Heating Degree Days 52    
Moisture  
Dew Point -3 °F    
Average Humidity 45    
Maximum Humidity 76    
Minimum Humidity 15    
Precipitation  
Precipitation 0.00 in - - ()
Sea Level Pressure  
Sea Level Pressure 30.61 in    
Wind  
Wind Speed 3 mph (South)    
Max Wind Speed 8 mph    
Max Gust Speed -    
Visibility 10 miles    
Events      
Averages and records for this station are not official NWS values.
T = Trace of Precipitation, MM = Missing Value Source: NWS Daily Summary

Daily Weather History Graph

Daily Weather History Graph

Search for Another Location

Airport:

Trip Planner

Search our weather history database for the weather conditions in past years. The results will help you decide how hot, cold, wet, or windy it might be!

Date:

Astronomy

Apr. 14, 2013 Rise Set
Actual Time 6:13 AM AKDT 9:14 PM AKDT
Civil Twilight 5:19 AM AKDT 10:09 PM AKDT
Nautical Twilight 4:00 AM AKDT 11:30 PM AKDT
Astronomical Twilight 2:15 AM AKDT 1:10 AM AKDT
Moon 7:45 AM AKDT (4/14) 1:55 AM AKDT (4/14)
Length of Visible Light 16h 50m
Length of Day
15h 00m
Waxing Crescent, 18% of the Moon is Illuminated
Apr 14
Waxing Crescent
Apr 18
First Quarter
Apr 25
Full
May 2
Last Quarter
May 9
New

Hourly Weather History & Observations

Time (AKDT) Temp. Windchill Dew Point Humidity Pressure Visibility Wind Dir Wind Speed Gust Speed Precip Events Conditions
12:53 AM 8.1 °F -4.3 °F -4.0 °F 58% 30.58 in 10.0 mi SSW 8.1 mph - N/A   Clear
1:53 AM 5.0 °F -6.9 °F -6.0 °F 61% 30.59 in 10.0 mi SW 6.9 mph - N/A   Clear
2:53 AM 5.0 °F -4.1 °F -5.1 °F 63% 30.61 in 10.0 mi SW 4.6 mph - N/A   Clear
3:53 AM 1.9 °F -7.6 °F -7.1 °F 66% 30.62 in 10.0 mi SSW 4.6 mph - N/A   Partly Cloudy
4:53 AM 5.0 °F -2.1 °F -6.0 °F 61% 30.63 in 10.0 mi SSW 3.5 mph - N/A   Partly Cloudy
5:53 AM 1.9 °F -7.6 °F -8.0 °F 63% 30.64 in 10.0 mi ESE 4.6 mph - N/A   Clear
6:53 AM -2.0 °F - -8.0 °F 76% 30.66 in 10.0 mi Calm Calm - N/A   Scattered Clouds
7:53 AM 1.0 °F - -7.1 °F 69% 30.66 in 10.0 mi Calm Calm - N/A   Mostly Cloudy
8:53 AM 5.0 °F -5.6 °F -6.0 °F 61% 30.66 in 10.0 mi ESE 5.8 mph - N/A   Partly Cloudy
9:53 AM 12.0 °F - -2.9 °F 51% 30.66 in 10.0 mi Calm Calm - N/A   Partly Cloudy
10:53 AM 15.1 °F - -2.0 °F 47% 30.66 in 10.0 mi Calm Calm - N/A   Partly Cloudy
11:53 AM 21.9 °F - -2.0 °F 35% 30.64 in 10.0 mi Calm Calm - N/A   Partly Cloudy
12:53 PM 21.9 °F - -0.9 °F 37% 30.63 in 10.0 mi Calm Calm - N/A   Partly Cloudy
1:53 PM 25.0 °F - -0.9 °F 33% 30.62 in 10.0 mi Calm Calm - N/A   Scattered Clouds
2:53 PM 27.0 °F - -2.0 °F 29% 30.60 in 10.0 mi Calm Calm - N/A   Scattered Clouds
3:53 PM 28.0 °F - -0.9 °F 29% 30.59 in 10.0 mi Calm Calm - N/A   Mostly Cloudy
4:53 PM 26.1 °F - -0.9 °F 31% 30.58 in 10.0 mi Calm Calm - N/A   Mostly Cloudy
5:53 PM 28.9 °F - -0.9 °F 28% 30.57 in 10.0 mi Calm Calm - N/A   Mostly Cloudy
6:53 PM 28.0 °F - -0.9 °F 29% 30.58 in 10.0 mi Calm Calm - N/A   Mostly Cloudy
7:53 PM 27.0 °F 23.0 °F 1.0 °F 33% 30.57 in 10.0 mi ENE 3.5 mph - N/A   Mostly Cloudy
8:53 PM 26.1 °F 20.5 °F -0.0 °F 32% 30.56 in 10.0 mi ENE 4.6 mph - N/A   Mostly Cloudy
9:53 PM 23.0 °F - -0.0 °F 37% 30.56 in 10.0 mi Calm Calm - N/A   Clear
10:53 PM 19.9 °F 14.9 °F 1.9 °F 46% 30.57 in 10.0 mi SW 3.5 mph - N/A   Clear
11:53 PM 16.0 °F 10.4 °F 1.0 °F 52% 30.57 in 10.0 mi SSW 3.5 mph - N/A   Overcast